Regional Weather Roundup
Issued by NWS

Home | Current Version | Previous Version | Graphics & Text | Print | Product List | Glossary On
Versions: 1 2 3 4 5 6 7 8 9 10 11 12 13 14 15 16 17 18 19 20 21 22 23 24 25 26 27
000
ASUS45 KBOI 160810
RWRID

IDAHO REGIONAL WEATHER ROUNDUP
NATIONAL WEATHER SERVICE BOISE ID
200 AM MDT WED AUG 16 2017

NOTE: "FAIR" INDICATES FEW OR NO CLOUDS BELOW 12000 FEET
WITH NO SIGNIFICANT WEATHER AND/OR OBSTRUCTIONS TO VISIBILITY

IDZ012-014-160900-
SOUTHWEST IDAHO


CITY           SKY/WX    TMP DP  RH WIND       PRES   REMARKS
BOISE          CLEAR     66  37  34 E7        29.91R
CALDWELL       CLEAR     65  47  52 SW5       29.90R
MOUNTAIN HOME  CLEAR     63  40  43 NW3       29.91R
$$

IDZ016-017-160900-
SOUTHCENTRAL IDAHO


CITY           SKY/WX    TMP DP  RH WIND       PRES   REMARKS
BURLEY         PTCLDY    54  45  71 SE5       29.98R
JEROME         CLEAR     60  41  49 E8        29.98R
TWIN FALLS     CLEAR     59  33  37 S9        29.98R
$$

IDZ019>023-160900-
SOUTHEAST IDAHO


CITY           SKY/WX    TMP DP  RH WIND       PRES   REMARKS
IDAHO FALLS    CLEAR     48  45  89 NW5       30.03R
POCATELLO      CLEAR     51  41  68 SW3       30.01S
REXBURG        CLEAR     51  43  74 NE6       30.04S
$$

IDZ006-010-011-018-031-032-160900-
CENTRAL IDAHO MOUNTAINS


CITY           SKY/WX    TMP DP  RH WIND       PRES   REMARKS
MCCALL         CLEAR     49  39  68 CALM      30.04R
HAILEY         CLEAR     54  43  66 NW9       30.08S
STANLEY          N/A     41  28  60 S3        30.15R
SALMON         CLEAR     54  40  59 NE3       30.01R
CHALLIS        CLEAR     54  40  59 SE7       30.05R
$$

IDZ002-004-006-007-026-160900-
NORTHERN IDAHO


CITY           SKY/WX    TMP DP  RH WIND       PRES   REMARKS
LEWISTON       CLEAR     63  37  38 S6        29.92R
LOWELL           N/A     58  45  62 CALM      29.97R
COEUR D`ALENE  CLEAR     52  44  74 S5        29.95R
MULLAN PASS    CLEAR     52  27  38 NW3       30.09S
$$




USA.gov is the U.S. government's official web portal to all federal, state and local government web resources and services.